Weather History for Hearne, TX

Change the Weather History Date:

Saturday, October 5, 2013

  Actual Average (KCLL) Record (KCLL)
Temperature  
Mean Temperature 72 °F 74 °F  
Max Temperature 87 °F 85 °F 97 °F (1912)
Min Temperature 59 °F 63 °F 45 °F (1932)
Degree Days  
Heating Degree Days 0 0  
Month to date heating degree days 0  
Since 1 July heating degree days 2  
Cooling Degree Days 8 9  
Month to date cooling degree days 49  
Year to date cooling degree days 2845  
Growing Degree Days 22 (Base 50)    
Moisture  
Dew Point 63 °F    
Average Humidity 72    
Maximum Humidity 93    
Minimum Humidity 53    
Precipitation  
Precipitation 0.00 in 0.14 in 2.36 in (2003)
Month to date precipitation 0.71  
Year to date precipitation 29.41  
Sea Level Pressure  
Sea Level Pressure 29.96 in    
Wind  
Wind Speed 8 mph (West)    
Max Wind Speed 22 mph    
Max Gust Speed 28 mph    
Visibility 9 miles    
Events      
T = Trace of Precipitation, MM = Missing Value Source: NWS Daily Summary

Daily Weather History Graph

Daily Weather History Graph

Search for Another Location

Airport:

Trip Planner

Search our weather history database for the weather conditions in past years. The results will help you decide how hot, cold, wet, or windy it might be!

Date:

Astronomy

Oct. 05, 2013 Rise Set
Actual Time 7:22 AM CDT 7:06 PM CDT
Civil Twilight 6:58 AM CDT 7:30 PM CDT
Nautical Twilight 6:30 AM CDT 7:58 PM CDT
Astronomical Twilight 6:02 AM CDT 8:26 PM CDT
Moon 7:58 AM CDT (10/5) 7:32 PM CDT (10/5)
Length of Visible Light 12h 31m
Length of Day
11h 43m
New Moon, 1% of the Moon is Illuminated
Oct 5
New Moon
Oct 11
First Quarter
Oct 18
Full
Oct 26
Last Quarter
Nov 3
New

Hourly Weather History & Observations

Time (CDT) Temp. Heat Index Dew Point Humidity Pressure Visibility Wind Dir Wind Speed Gust Speed Precip Events Conditions
12:15 AM 74.7 °F - 68.5 °F 81% 29.91 in 10.0 mi SE 8.1 mph - N/A   Clear
12:35 AM 74.3 °F - 68.5 °F 82% 29.91 in 10.0 mi ESE 6.9 mph - N/A   Clear
12:55 AM 74.1 °F - 68.4 °F 82% 29.91 in 10.0 mi SE 6.9 mph - N/A   Clear
1:15 AM 73.9 °F - 68.4 °F 83% 29.91 in 10.0 mi ESE 6.9 mph - N/A   Clear
1:35 AM 73.4 °F - 68.4 °F 84% 29.91 in 10.0 mi SE 8.1 mph - N/A   Clear
1:55 AM 73.8 °F - 68.9 °F 85% 29.91 in 10.0 mi SE 8.1 mph - N/A   Mostly Cloudy
2:15 AM 73.8 °F - 68.9 °F 85% 29.91 in 10.0 mi SE 8.1 mph - N/A   Overcast
2:35 AM 74.3 °F - 70.2 °F 87% 29.90 in 10.0 mi SE 8.1 mph - N/A   Overcast
2:55 AM 74.3 °F - 69.8 °F 86% 29.90 in 10.0 mi SE 6.9 mph - N/A   Overcast
3:15 AM 74.3 °F - 70.2 °F 87% 29.90 in 10.0 mi SE 6.9 mph - N/A   Overcast
3:35 AM 74.5 °F - 70.3 °F 87% 29.90 in 10.0 mi SE 4.6 mph - N/A   Overcast
3:55 AM 74.5 °F - 70.7 °F 88% 29.90 in 10.0 mi SE 6.9 mph - N/A   Overcast
4:15 AM 74.5 °F - 71.1 °F 89% 29.91 in 7.0 mi SE 5.8 mph - N/A   Overcast
4:35 AM 74.5 °F - 71.6 °F 91% 29.91 in 7.0 mi SE 5.8 mph - N/A   Overcast
4:55 AM 74.5 °F - 71.8 °F 91% 29.91 in 7.0 mi Calm Calm - N/A   Overcast
5:15 AM 73.9 °F - 71.2 °F 91% 29.92 in 7.0 mi ESE 3.5 mph - N/A   Mostly Cloudy
5:35 AM 73.6 °F - 71.1 °F 92% 29.92 in 7.0 mi ESE 3.5 mph - N/A   Scattered Clouds
5:55 AM 73.6 °F - 71.2 °F 92% 29.93 in 7.0 mi ESE 3.5 mph - N/A   Mostly Cloudy
6:15 AM 73.6 °F - 71.2 °F 92% 29.93 in 7.0 mi Calm Calm - N/A   Mostly Cloudy
6:35 AM 73.6 °F - 71.6 °F 93% 29.94 in 5.0 mi Calm Calm - N/A   Mostly Cloudy
6:55 AM 73.6 °F - 71.6 °F 93% 29.93 in 5.0 mi ESE 3.5 mph - N/A   Overcast
7:15 AM 73.8 °F - 71.8 °F 93% 29.93 in 5.0 mi Calm Calm - N/A   Overcast
7:35 AM 73.8 °F - 71.8 °F 93% 29.93 in 5.0 mi SSE 3.5 mph - N/A   Overcast
7:55 AM 73.9 °F - 71.8 °F 93% 29.94 in 5.0 mi South 4.6 mph - N/A   Mostly Cloudy
8:15 AM 74.3 °F - 71.8 °F 92% 29.94 in 7.0 mi Calm Calm - N/A   Mostly Cloudy
8:35 AM 74.5 °F - 72.0 °F 92% 29.96 in 7.0 mi Calm Calm - N/A   Mostly Cloudy
8:55 AM 75.9 °F - 72.1 °F 88% 29.97 in 10.0 mi Calm Calm - N/A   Overcast
9:15 AM 75.7 °F - 71.2 °F 86% 29.98 in 10.0 mi Calm Calm - N/A   Mostly Cloudy
9:35 AM 77.7 °F - 71.4 °F 81% 29.98 in 10.0 mi SSE 6.9 mph - N/A   Clear
9:55 AM 79.0 °F - 70.9 °F 76% 29.98 in 10.0 mi SE 5.8 mph - N/A   Clear
10:15 AM 79.9 °F - 70.5 °F 73% 29.98 in 10.0 mi SE 4.6 mph - N/A   Clear
10:35 AM 80.6 °F 83.9 °F 69.8 °F 70% 29.98 in 10.0 mi South 5.8 mph - N/A   Clear
10:55 AM 81.3 °F 84.6 °F 69.6 °F 67% 29.99 in 10.0 mi South 4.6 mph - N/A   Scattered Clouds
11:15 AM 82.6 °F 85.7 °F 68.5 °F 62% 29.99 in 10.0 mi South 5.8 mph - N/A   Mostly Cloudy
11:35 AM 81.9 °F 84.6 °F 67.5 °F 62% 29.99 in 10.0 mi SW 5.8 mph - N/A   Mostly Cloudy
11:55 AM 82.9 °F 85.8 °F 67.8 °F 60% 29.99 in 10.0 mi SSW 4.6 mph - N/A   Mostly Cloudy
12:15 PM 82.8 °F 85.5 °F 67.5 °F 60% 29.98 in 10.0 mi SW 3.5 mph - N/A   Scattered Clouds
12:35 PM 82.9 °F 86.7 °F 69.4 °F 64% 29.97 in 10.0 mi WSW 5.8 mph - N/A   Clear
12:55 PM 83.8 °F 87.8 °F 69.4 °F 62% 29.97 in 10.0 mi NW 5.8 mph - N/A   Scattered Clouds
1:15 PM 84.4 °F 87.6 °F 68.0 °F 58% 29.96 in 10.0 mi West 5.8 mph - N/A   Scattered Clouds
1:35 PM 85.3 °F 88.2 °F 67.5 °F 55% 29.95 in 10.0 mi Calm Calm - N/A   Scattered Clouds
1:55 PM 86.7 °F 90.6 °F 68.9 °F 55% 29.93 in 10.0 mi South 4.6 mph - N/A   Scattered Clouds
2:15 PM 86.7 °F 89.9 °F 67.5 °F 53% 29.92 in 10.0 mi SSW 4.6 mph - N/A   Scattered Clouds
2:35 PM 80.4 °F 82.2 °F 64.9 °F 59% 29.94 in 10.0 mi NW 17.3 mph 21.9 mph N/A   Mostly Cloudy
2:55 PM 79.9 °F - 63.1 °F 56% 29.94 in 7.0 mi NW 21.9 mph 27.6 mph N/A   Scattered Clouds
3:15 PM 77.5 °F - 61.2 °F 57% 29.94 in 10.0 mi NW 17.3 mph 25.3 mph N/A   Clear
3:35 PM 77.2 °F - 61.0 °F 57% 29.94 in 7.0 mi NNW 17.3 mph 23.0 mph N/A   Clear
3:55 PM 77.4 °F - 60.8 °F 57% 29.94 in 10.0 mi NW 12.7 mph - N/A   Clear
4:15 PM 77.4 °F - 61.2 °F 57% 29.94 in 10.0 mi NNW 16.1 mph - N/A   Clear
4:35 PM 75.7 °F - 60.1 °F 58% 29.94 in 10.0 mi NW 13.8 mph 20.7 mph N/A   Clear
4:55 PM 74.5 °F - 59.7 °F 60% 29.94 in 10.0 mi NW 16.1 mph - N/A   Clear
5:15 PM 73.4 °F - 58.6 °F 60% 29.94 in 10.0 mi NW 17.3 mph 21.9 mph N/A   Clear
5:35 PM 71.4 °F - 58.1 °F 63% 29.94 in 10.0 mi NNW 15.0 mph - N/A   Clear
5:55 PM 70.2 °F - 57.2 °F 63% 29.95 in 10.0 mi NW 17.3 mph - N/A   Clear
6:15 PM 68.2 °F - 56.3 °F 66% 29.96 in 10.0 mi NW 18.4 mph - N/A   Scattered Clouds
6:35 PM 67.6 °F - 55.4 °F 65% 29.97 in 10.0 mi NW 16.1 mph - N/A   Scattered Clouds
6:55 PM 66.7 °F - 52.5 °F 60% 29.99 in 10.0 mi NW 16.1 mph 26.5 mph N/A   Clear
7:15 PM 66.2 °F - 51.6 °F 59% 30.00 in 10.0 mi NNW 16.1 mph 23.0 mph N/A   Scattered Clouds
7:35 PM 65.8 °F - 50.7 °F 58% 30.01 in 10.0 mi NNW 15.0 mph 23.0 mph N/A   Overcast
7:55 PM 65.7 °F - 50.7 °F 58% 30.02 in 10.0 mi NW 17.3 mph 20.7 mph N/A   Overcast
8:15 PM 65.3 °F - 49.6 °F 57% 30.02 in 10.0 mi NW 15.0 mph 18.4 mph N/A   Overcast
8:35 PM 64.8 °F - 49.1 °F 57% 30.03 in 10.0 mi NNW 17.3 mph 24.2 mph N/A   Overcast
8:55 PM 64.4 °F - 49.1 °F 58% 30.05 in 10.0 mi NW 13.8 mph - N/A   Overcast
9:15 PM 63.7 °F - 48.6 °F 58% 30.05 in 10.0 mi NW 15.0 mph 23.0 mph N/A   Overcast
9:35 PM 62.6 °F - 48.2 °F 59% 30.05 in 10.0 mi NNW 15.0 mph 19.6 mph N/A   Mostly Cloudy
9:55 PM 61.9 °F - 48.2 °F 61% 30.06 in 10.0 mi NNW 13.8 mph 20.7 mph N/A   Scattered Clouds
10:15 PM 61.3 °F - 47.5 °F 60% 30.06 in 10.0 mi NNW 13.8 mph - N/A   Clear
10:35 PM 60.8 °F - 46.6 °F 59% 30.06 in 10.0 mi NW 11.5 mph - N/A   Clear
10:55 PM 60.4 °F - 46.6 °F 60% 30.06 in 10.0 mi NW 12.7 mph 16.1 mph N/A   Clear
11:15 PM 59.9 °F - 46.4 °F 61% 30.06 in 10.0 mi NW 10.4 mph - N/A   Clear
11:35 PM 59.9 °F - 45.7 °F 59% 30.06 in 10.0 mi NNW 16.1 mph 20.7 mph N/A   Clear
11:55 PM 59.7 °F - 45.0 °F 58% 30.07 in 10.0 mi NNW 9.2 mph - N/A   Clear